| time (UTC) | temp F | wind direction | speed knots | gust knots | rain 1hr in | rain 24hr in | rain mn in | humidity % | barometer mb |
| 20260505034430 | 59 | 295 | 0.9 | 1.7 | 0.00 | 0.00 | 0.00 | 75 | 1007.4 |
| 20260505032430 | 61 | 130 | 1.7 | 5.2 | 0.00 | 0.00 | 0.00 | 72 | 1007.2 |
| 20260505031431 | 62 | 26 | 1.7 | 5.2 | 0.00 | 0.00 | 0.00 | 72 | 1007.1 |
| 20260505030431 | 62 | 347 | 2.6 | 6.1 | 0.00 | 0.00 | 0.00 | 71 | 1007.1 |
| 20260505024432 | 63 | 67 | 4.3 | 8.7 | 0.00 | 0.00 | 0.00 | 68 | 1007.0 |
| 20260505023433 | 65 | 313 | 3.5 | 7.0 | 0.00 | 0.00 | 0.00 | 66 | 1006.9 |
| 20260505022432 | 65 | 209 | 2.6 | 6.1 | 0.00 | 0.00 | 0.00 | 65 | 1006.9 |
| 20260505021440 | 66 | 303 | 3.5 | 6.1 | 0.00 | 0.00 | 0.00 | 63 | 1006.9 |
| 20260505020440 | 67 | 252 | 3.5 | 8.7 | 0.00 | 0.00 | 0.00 | 62 | 1007.1 |
| 20260505015436 | 67 | 344 | 4.3 | 7.8 | 0.00 | 0.00 | 0.00 | 61 | 1007.1 |
| 20260505014429 | 68 | 308 | 3.5 | 7.8 | 0.00 | 0.00 | 0.00 | 60 | 1007.2 |
| 20260505013434 | 69 | 292 | 3.5 | 7.0 | 0.00 | 0.00 | 0.00 | 58 | 1007.3 |
| 20260505012439 | 69 | 43 | 4.3 | 8.7 | 0.00 | 0.00 | 0.00 | 58 | 1007.5 |
| 20260505011431 | 70 | 0 | 5.2 | 8.7 | 0.00 | 0.00 | 0.00 | 55 | 1007.5 |
| 20260505010432 | 71 | 292 | 5.2 | 7.8 | 0.00 | 0.00 | 0.00 | 55 | 1007.5 |
| 20260505005431 | 72 | 299 | 3.5 | 6.1 | 0.00 | 0.00 | 0.00 | 55 | 1007.6 |
| 20260505004428 | 73 | 314 | 2.6 | 6.1 | 0.00 | 0.00 | 0.00 | 54 | 1007.5 |
| 20260505003429 | 73 | 335 | 3.5 | 7.8 | 0.00 | 0.00 | 0.00 | 54 | 1007.6 |
| 20260505002429 | 73 | 342 | 3.5 | 7.8 | 0.00 | 0.00 | 0.00 | 55 | 1007.5 |
| 20260505001433 | 73 | 17 | 3.5 | 7.8 | 0.00 | 0.00 | 0.00 | 55 | 1007.5 |
| 20260505000434 | 73 | 320 | 5.2 | 8.7 | 0.00 | 0.00 | 0.00 | 56 | 1007.5 |
| 20260504235430 | 73 | 306 | 5.2 | 8.7 | 0.00 | 0.00 | 0.00 | 54 | 1007.6 |
| 20260504234431 | 73 | 301 | 4.3 | 7.0 | 0.00 | 0.00 | 0.00 | 53 | 1007.5 |
| 20260504233426 | 74 | 345 | 4.3 | 8.7 | 0.00 | 0.00 | 0.00 | 53 | 1007.5 |
| 20260504232424 | 74 | 267 | 4.3 | 8.7 | 0.00 | 0.00 | 0.00 | 53 | 1007.6 |
| 20260504231424 | 73 | 343 | 5.2 | 9.6 | 0.00 | 0.00 | 0.00 | 54 | 1007.6 |
| 20260504230424 | 73 | 347 | 5.2 | 9.6 | 0.00 | 0.00 | 0.00 | 54 | 1007.7 |
| 20260504225426 | 72 | 292 | 5.2 | 10.4 | 0.00 | 0.00 | 0.00 | 53 | 1007.8 |
| 20260504224425 | 72 | 317 | 6.1 | 11.3 | 0.00 | 0.00 | 0.00 | 52 | 1007.9 |
| 20260504223426 | 73 | 306 | 5.2 | 11.3 | 0.00 | 0.00 | 0.00 | 51 | 1008.0 |
| 20260504222425 | 73 | 299 | 5.2 | 9.6 | 0.00 | 0.00 | 0.00 | 53 | 1008.0 |
| 20260504221425 | 73 | 298 | 3.5 | 7.8 | 0.00 | 0.00 | 0.00 | 51 | 1008.0 |
| 20260504214424 | 75 | 314 | 0.9 | 5.2 | 0.00 | 0.00 | 0.00 | 52 | 1008.2 |
| 20260504213424 | 74 | 299 | 0.0 | 1.7 | 0.00 | 0.00 | 0.00 | 53 | 1008.4 |
| 20260504212428 | 72 | 126 | 0.0 | 1.7 | 0.00 | 0.00 | 0.00 | 58 | 1008.4 |
| 20260504210424 | 70 | 311 | 0.9 | 3.5 | 0.00 | 0.00 | 0.00 | 60 | 1008.5 |
| 20260504205424 | 70 | 307 | 0.9 | 3.5 | 0.00 | 0.00 | 0.00 | 58 | 1008.5 |
| 20260504204424 | 70 | 300 | 0.9 | 3.5 | 0.00 | 0.00 | 0.00 | 57 | 1008.4 |
| 20260504203424 | 69 | 304 | 0.9 | 3.5 | 0.00 | 0.00 | 0.00 | 58 | 1008.5 |
| 20260504202424 | 69 | 315 | 0.9 | 6.1 | 0.00 | 0.00 | 0.00 | 59 | 1008.5 |
| 20260504201424 | 70 | 311 | 0.9 | 4.3 | 0.00 | 0.00 | 0.00 | 56 | 1008.5 |
| 20260504200424 | 72 | 304 | 0.9 | 4.3 | 0.00 | 0.00 | 0.00 | 53 | 1008.5 |
| 20260504195424 | 73 | 307 | 0.9 | 3.5 | 0.00 | 0.00 | 0.00 | 53 | 1008.5 |
| 20260504194421 | 71 | 307 | 0.9 | 3.5 | 0.00 | 0.00 | 0.00 | 55 | 1008.4 |
| 20260504193421 | 71 | 309 | 0.9 | 3.5 | 0.00 | 0.00 | 0.00 | 53 | 1008.5 |
| 20260504192422 | 71 | 311 | 0.9 | 4.3 | 0.00 | 0.00 | 0.00 | 51 | 1008.5 |
| 20260504191426 | 71 | 39 | 0.9 | 3.5 | 0.00 | 0.00 | 0.00 | 51 | 1008.4 |
| 20260504190422 | 72 | 307 | 0.9 | 3.5 | 0.00 | 0.00 | 0.00 | 50 | 1008.4 |
| 20260504185422 | 73 | 103 | 0.0 | 2.6 | 0.00 | 0.00 | 0.00 | 50 | 1008.4 |
| 20260504184422 | 72 | 123 | 0.9 | 3.5 | 0.00 | 0.00 | 0.00 | 52 | 1008.5 |
| 20260504183422 | 71 | 339 | 0.0 | 3.5 | 0.00 | 0.00 | 0.00 | 53 | 1008.5 |
| 20260504182422 | 70 | 294 | 0.9 | 5.2 | 0.00 | 0.00 | 0.00 | 54 | 1008.7 |
| 20260504181421 | 70 | 304 | 0.9 | 5.2 | 0.00 | 0.00 | 0.00 | 55 | 1008.8 |
| 20260504180421 | 70 | 306 | 0.9 | 4.3 | 0.00 | 0.00 | 0.00 | 55 | 1008.7 |
| 20260504175421 | 69 | 300 | 0.9 | 3.5 | 0.00 | 0.00 | 0.00 | 55 | 1008.6 |
| 20260504174420 | 70 | 332 | 0.9 | 3.5 | 0.00 | 0.00 | 0.00 | 54 | 1008.5 |
| 20260504173424 | 70 | 309 | 0.0 | 1.7 | 0.00 | 0.00 | 0.00 | 54 | 1008.5 |
| 20260504172421 | 70 | 122 | 0.0 | 0.9 | 0.00 | 0.00 | 0.00 | 57 | 1008.6 |
| 20260504171421 | 68 | 41 | 0.0 | 1.7 | 0.00 | 0.00 | 0.00 | 58 | 1008.7 |
| 20260504170421 | 67 | 299 | 0.0 | 3.5 | 0.00 | 0.00 | 0.00 | 57 | 1008.7 |
| 20260504160418 | 71 | 315 | 0.0 | 1.7 | 0.00 | 0.00 | 0.00 | 52 | 1008.5 |
| 20260504150418 | 68 | 334 | 0.0 | 0.9 | 0.00 | 0.00 | 0.00 | 55 | 1008.1 |
| 20260504140413 | 61 | 331 | 0.0 | 1.7 | 0.00 | 0.00 | 0.00 | 68 | 1007.8 |
| 20260504130412 | 53 | 123 | 0.0 | 0.0 | 0.00 | 0.00 | 0.00 | 75 | 1007.4 |
| 20260504110409 | 53 | 273 | 0.0 | 0.0 | 0.00 | 0.00 | 0.00 | 77 | 1007.4 |
| 20260504080403 | 61 | 105 | 0.0 | 0.0 | 0.00 | 0.00 | 0.00 | 49 | 1006.8 |
| 20260504070359 | 58 | 118 | 0.0 | 0.0 | 0.00 | 0.00 | 0.00 | 60 | 1007.1 |
| 20260504050359 | 62 | 164 | 0.0 | 0.9 | 0.00 | 0.00 | 0.00 | 54 | 1007.6 |
| 20260504045357 | 62 | 194 | 0.0 | 0.0 | 0.00 | 0.00 | 0.00 | 57 | 1007.6 |
| 20260504044358 | 62 | 223 | 0.0 | 0.0 | 0.00 | 0.00 | 0.00 | 62 | 1007.5 |
| 20260504043358 | 63 | 139 | 0.0 | 0.0 | 0.00 | 0.00 | 0.00 | 57 | 1007.5 |
| 20260504042359 | 64 | 138 | 0.0 | 0.0 | 0.00 | 0.00 | 0.00 | 53 | 1007.4 |
| 20260504041357 | 65 | 139 | 0.0 | 0.0 | 0.00 | 0.00 | 0.00 | 51 | 1007.4 |